Simultaneous Nadir Overpasses (SNOs) Predictions

Prediction of SNOs between LANDSAT-8 and METOP-A Satellite Orbit:

Table of predicted SNOs for the next 14.0 days since TLE Epoch: 12/23/2013
Index Date (LANDSAT-8) Time (LANDSAT-8) Lat,Lon (LANDSAT-8) SZA (LANDSAT-8 ) Date (METOP-A) Time (METOP-A) Lat,Lon (METOP-A) SZA (METOP-A ) Distance(km) Time Diff (sec)
1 12/24/2013 19:48:18 -81.17, 103.55 73.45 12/24/2013 19:47:58 -81.17, 103.52 73.46 0.48 20
2 12/24/2013 20:37:43 81.19, -88.46 106.60 12/24/2013 20:38:37 81.19, -88.47 106.63 0.17 54
3 12/27/2013 15:22:33 -81.18, 170.13 73.56 12/27/2013 15:22:20 -81.17, 169.96 73.59 3.09 13
4 12/27/2013 16:11:58 81.20, -21.89 106.49 12/27/2013 16:12:59 81.19, -22.03 106.50 2.45 61
5 12/30/2013 10:56:49 -81.18,-123.54 73.77 12/30/2013 10:56:42 -81.17,-123.65 73.78 1.90 7
6
